Weather History for Jefferson, NC

Change the Weather History Date:

Friday, June 1, 2012

  Actual Average Record
Temperature  
Mean Temperature 60 °F -  
Max Temperature 68 °F 74 °F 84 °F (2011)
Min Temperature 51 °F 51 °F 32 °F (1966)
Degree Days  
Heating Degree Days 6    
Growing Degree Days 10 (Base 50)    
Moisture  
Dew Point 54 °F    
Average Humidity 80    
Maximum Humidity 94    
Minimum Humidity 63    
Precipitation  
Precipitation 0.20 in - - ()
Sea Level Pressure  
Sea Level Pressure 29.87 in    
Wind  
Wind Speed 5 mph (SSW)    
Max Wind Speed 21 mph    
Max Gust Speed 33 mph    
Visibility 9 miles    
Events Rain    
Averages and records for this station are not official NWS values.
T = Trace of Precipitation, MM = Missing Value Source: NWS Daily Summary

Daily Weather History Graph

Daily Weather History Graph

Search for Another Location

Airport:

Trip Planner

Search our weather history database for the weather conditions in past years. The results will help you decide how hot, cold, wet, or windy it might be!

Date:

Astronomy

Jun. 01, 2012 Rise Set
Actual Time 6:08 AM EDT 8:38 PM EDT
Civil Twilight 5:39 AM EDT 9:08 PM EDT
Nautical Twilight 5:02 AM EDT 9:45 PM EDT
Astronomical Twilight 4:21 AM EDT 10:26 PM EDT
Moon 5:42 PM EDT (6/1) 3:39 AM EDT (6/1)
Length of Visible Light 15h 29m
Length of Day
14h 29m
Waxing Gibbous, 89% of the Moon is Illuminated
Jun 1
Waxing Gibbous
Jun 4
Full
Jun 11
Last Quarter
Jun 19
New
Jun 26
First Quarter

Hourly Weather History & Observations

Time (EDT) Temp. Dew Point Humidity Pressure Visibility Wind Dir Wind Speed Gust Speed Precip Events Conditions
12:35 AM 60.8 °F 55.4 °F 82% 29.96 in 10.0 mi Calm Calm - N/A Rain Rain
12:55 AM 60.8 °F 55.4 °F 82% 29.96 in 10.0 mi SE 3.5 mph - N/A Rain Rain
1:15 AM 60.8 °F 55.4 °F 82% 29.95 in 10.0 mi SSE 4.6 mph - N/A Rain Light Rain
1:35 AM 60.8 °F 55.4 °F 82% 29.95 in 10.0 mi SSE 3.5 mph - N/A   Mostly Cloudy
1:55 AM 59.0 °F 55.4 °F 88% 29.94 in 10.0 mi SSE 3.5 mph - N/A   Overcast
2:15 AM 59.0 °F 55.4 °F 88% 29.93 in 10.0 mi Calm Calm - N/A   Overcast
2:35 AM 59.0 °F 55.4 °F 88% 29.93 in 10.0 mi Calm Calm - N/A   Overcast
2:55 AM 59.0 °F 55.4 °F 88% 29.92 in 7.0 mi SSE 3.5 mph - N/A   Overcast
3:15 AM 59.0 °F 57.2 °F 94% 29.91 in 10.0 mi Calm Calm - N/A   Overcast
3:35 AM 59.0 °F 57.2 °F 94% 29.90 in 7.0 mi Calm Calm - N/A   Mostly Cloudy
3:55 AM 59.0 °F 57.2 °F 94% 29.90 in 7.0 mi Calm Calm - N/A   Mostly Cloudy
4:15 AM 60.8 °F 57.2 °F 88% 29.89 in 7.0 mi Calm Calm - N/A Rain Light Rain
4:35 AM 60.8 °F 57.2 °F 88% 29.88 in 10.0 mi SSE 4.6 mph - N/A Rain Light Rain
4:55 AM 60.8 °F 57.2 °F 88% 29.87 in 10.0 mi Calm Calm - N/A Rain Light Rain
5:15 AM 60.8 °F 57.2 °F 88% 29.86 in 10.0 mi Calm Calm - N/A   Light Drizzle
5:35 AM 60.8 °F 55.4 °F 82% 29.86 in 10.0 mi SE 3.5 mph - N/A   Overcast
5:55 AM 59.0 °F 55.4 °F 88% 29.87 in 7.0 mi Calm Calm - N/A   Overcast
6:15 AM 59.0 °F 55.4 °F 88% 29.88 in 7.0 mi SSE 5.8 mph - N/A   Mostly Cloudy
6:35 AM 59.0 °F 55.4 °F 88% 29.88 in 5.0 mi Calm Calm - N/A   Mostly Cloudy
6:55 AM 59.0 °F 55.4 °F 88% 29.87 in 5.0 mi SSE 6.9 mph - N/A   Mostly Cloudy
7:15 AM 59.0 °F 55.4 °F 88% 29.86 in 5.0 mi SSE 4.6 mph - N/A   Overcast
7:35 AM 59.0 °F 55.4 °F 88% 29.88 in 7.0 mi Calm Calm - N/A   Overcast
7:55 AM 59.0 °F 55.4 °F 88% 29.88 in 7.0 mi Calm Calm - N/A   Overcast
8:15 AM 59.0 °F 55.4 °F 88% 29.88 in 10.0 mi Calm Calm - N/A   Overcast
8:35 AM 59.0 °F 55.4 °F 88% 29.89 in 7.0 mi Calm Calm - N/A Rain Light Rain
8:55 AM 60.8 °F 55.4 °F 82% 29.88 in 10.0 mi SSE 4.6 mph - N/A   Overcast
9:15 AM 60.8 °F 57.2 °F 88% 29.88 in 10.0 mi SE 4.6 mph - N/A   Mostly Cloudy
9:35 AM 62.6 °F 57.2 °F 82% 29.88 in 10.0 mi SSE 5.8 mph - N/A   Mostly Cloudy
9:55 AM 62.6 °F 57.2 °F 82% 29.87 in 10.0 mi SSE 6.9 mph - N/A   Overcast
10:15 AM 62.6 °F 57.2 °F 82% 29.87 in 10.0 mi SSE 6.9 mph - N/A   Overcast
10:35 AM 62.6 °F 55.4 °F 77% 29.88 in 10.0 mi SSE 6.9 mph - N/A   Overcast
10:55 AM 60.8 °F 57.2 °F 88% 29.88 in 10.0 mi SSE 4.6 mph - N/A Rain Light Rain
11:15 AM 60.8 °F 57.2 °F 88% 29.88 in 10.0 mi South 3.5 mph - N/A   Overcast
11:35 AM 62.6 °F 57.2 °F 82% 29.87 in 10.0 mi SSE 4.6 mph - N/A   Light Drizzle
11:55 AM 62.6 °F 57.2 °F 82% 29.87 in 10.0 mi SSE 5.8 mph - N/A   Drizzle
12:15 PM 62.6 °F 59.0 °F 88% 29.86 in 10.0 mi South 5.8 mph - N/A Rain Light Rain
12:35 PM 62.6 °F 59.0 °F 88% 29.86 in 10.0 mi SSE 5.8 mph - N/A   Overcast
12:55 PM 62.6 °F 59.0 °F 88% 29.86 in 10.0 mi South 6.9 mph - N/A Rain Light Rain
1:15 PM 62.6 °F 59.0 °F 88% 29.85 in 10.0 mi SSE 6.9 mph - N/A   Overcast
1:35 PM 62.6 °F 59.0 °F 88% 29.85 in 10.0 mi SSE 8.1 mph - N/A   Overcast
1:55 PM 64.4 °F 59.0 °F 83% 29.83 in 10.0 mi SSE 6.9 mph 19.6 mph N/A   Overcast
2:15 PM 68.0 °F 59.0 °F 73% 29.83 in 10.0 mi SSE 8.1 mph - N/A   Overcast
2:35 PM 68.0 °F 59.0 °F 73% 29.81 in 10.0 mi SE 5.8 mph - N/A   Overcast
2:55 PM 66.2 °F 57.2 °F 73% 29.80 in 10.0 mi SSE 9.2 mph 16.1 mph N/A   Overcast
3:15 PM 68.0 °F 57.2 °F 68% 29.80 in 10.0 mi SE 5.8 mph - N/A   Overcast
3:35 PM 68.0 °F 57.2 °F 68% 29.80 in 10.0 mi SSE 3.5 mph - N/A   Overcast
3:55 PM 66.2 °F 55.4 °F 68% 29.82 in 10.0 mi WNW 20.7 mph 26.5 mph N/A   Overcast
4:15 PM 59.0 °F 53.6 °F 82% 29.83 in 3.0 mi West 18.4 mph 27.6 mph 0.11 in Rain Heavy Rain
4:35 PM 59.0 °F 53.6 °F 82% 29.82 in 4.0 mi West 16.1 mph 27.6 mph 0.19 in Rain Light Rain
4:55 PM 59.0 °F 53.6 °F 82% 29.82 in 10.0 mi WNW 17.3 mph 28.8 mph 0.20 in Rain Light Rain
5:15 PM 59.0 °F 53.6 °F 82% 29.82 in 10.0 mi West 13.8 mph 26.5 mph N/A   Overcast
5:35 PM 60.8 °F 51.8 °F 72% 29.81 in 10.0 mi WNW 20.7 mph 29.9 mph N/A   Mostly Cloudy
5:55 PM 60.8 °F 50.0 °F 68% 29.82 in 10.0 mi WNW 18.4 mph 33.4 mph N/A   Mostly Cloudy
6:15 PM 60.8 °F 50.0 °F 68% 29.82 in 10.0 mi WNW 15.0 mph 24.2 mph N/A   Overcast
6:35 PM 60.8 °F 50.0 °F 68% 29.81 in 10.0 mi WNW 18.4 mph 26.5 mph N/A   Overcast
6:55 PM 60.8 °F 50.0 °F 68% 29.81 in 10.0 mi NW 15.0 mph 31.1 mph N/A   Overcast
7:15 PM 60.8 °F 50.0 °F 68% 29.82 in 10.0 mi WNW 18.4 mph 26.5 mph N/A   Mostly Cloudy
7:35 PM 60.8 °F 50.0 °F 68% 29.83 in 10.0 mi WNW 10.4 mph 19.6 mph N/A   Overcast
7:55 PM 59.0 °F 48.2 °F 67% 29.84 in 10.0 mi WNW 12.7 mph 19.6 mph N/A   Mostly Cloudy
8:15 PM 59.0 °F 48.2 °F 67% 29.84 in 10.0 mi WNW 9.2 mph 19.6 mph N/A   Scattered Clouds
8:35 PM 59.0 °F 48.2 °F 67% 29.84 in 10.0 mi NW 4.6 mph 17.3 mph N/A   Scattered Clouds
9:15 PM 57.2 °F 44.6 °F 63% 29.83 in 10.0 mi NW 8.1 mph 19.6 mph N/A   Scattered Clouds
9:35 PM 55.4 °F 44.6 °F 67% 29.84 in 10.0 mi West 8.1 mph - N/A   Scattered Clouds
9:55 PM 55.4 °F 44.6 °F 67% 29.85 in 10.0 mi NW 11.5 mph 17.3 mph N/A   Mostly Cloudy
10:35 PM 53.6 °F 44.6 °F 72% 29.88 in 10.0 mi NNW 6.9 mph - N/A   Overcast
10:55 PM 53.6 °F 44.6 °F 72% 29.89 in 10.0 mi NW 9.2 mph - N/A   Overcast
11:15 PM 53.6 °F 44.6 °F 72% 29.89 in 10.0 mi NNW 9.2 mph - N/A   Overcast
11:35 PM 51.8 °F 42.8 °F 71% 29.90 in 10.0 mi NW 6.9 mph 16.1 mph N/A   Overcast
11:55 PM 51.8 °F 42.8 °F 71% 29.89 in 10.0 mi NW 12.7 mph 19.6 mph N/A   Scattered Clouds